When you browse on this site, cookies collect data to enhance your experience and personalize the content and advertising you see.
Visit our Privacy Policy to learn more. By continuing to use the site, you agree to this use of cookies and data.
  • In France
  • List of Countries
  • For 7 days
  • Water Temperature
  • Weather Map
  • Weather Widgets
  • user-avatar
    Login

    Hourly Weather Taba

    Today, 10 December, Tuesday

    Time Temperature Precipitation Wind Pressure Humidity
    00:00 +10°C° 0 mm 2 mps 692 mmHg 77%
    01:00 +10°C° 0 mm 2 mps 691 mmHg 80%
    02:00 +10°C° 0 mm 2 mps 691 mmHg 84%
    03:00 +10°C° 0 mm 1 mps 691 mmHg 86%
    04:00 +10°C° 0 mm 1 mps 691 mmHg 88%
    05:00 +8°C° 0 mm 0 mps 691 mmHg 90%
    06:00 +10°C° 0 mm 1 mps 691 mmHg 84%
    07:00 +12°C° 0 mm 1 mps 692 mmHg 78%
    08:00 +13°C° 0 mm 1 mps 692 mmHg 72%
    09:00 +15°C° 0 mm 1 mps 692 mmHg 62%
    10:00 +16°C° 0 mm 1 mps 693 mmHg 53%
    11:00 +18°C° 0 mm 1 mps 693 mmHg 44%
    12:00 +19°C° 0 mm 1 mps 692 mmHg 40%
    13:00 +20°C° 0 mm 1 mps 692 mmHg 36%
    14:00 +21°C° 0 mm 1 mps 691 mmHg 33%
    15:00 +19°C° 0 mm 1 mps 691 mmHg 39%
    16:00 +18°C° 0 mm 1 mps 691 mmHg 44%
    17:00 +14°C° 0 mm 0 mps 691 mmHg 50%
    18:00 +14°C° 0 mm 1 mps 691 mmHg 53%
    19:00 +14°C° 0 mm 1 mps 691 mmHg 56%
    20:00 +13°C° 0 mm 1 mps 691 mmHg 59%
    21:00 +13°C° 0 mm 1 mps 692 mmHg 60%
    22:00 +13°C° 0 mm 1 mps 692 mmHg 61%
    23:00 +12°C° 0 mm 1 mps 692 mmHg 63%

    Tomorrow, 11 December, Wednesday

    Time Temperature Precipitation Wind Pressure Humidity
    00:00 +12°C° 0 mm 1 mps 691 mmHg 63%
    01:00 +12°C° 0 mm 1 mps 691 mmHg 64%
    02:00 +12°C° 0 mm 1 mps 691 mmHg 64%
    03:00 +12°C° 0 mm 1 mps 691 mmHg 64%
    04:00 +12°C° 0 mm 1 mps 691 mmHg 64%
    05:00 +12°C° 0 mm 1 mps 691 mmHg 64%
    06:00 +13°C° 0 mm 1 mps 691 mmHg 59%
    07:00 +14°C° 0 mm 1 mps 692 mmHg 53%
    08:00 +16°C° 0 mm 1 mps 692 mmHg 48%
    09:00 +17°C° 0 mm 2 mps 692 mmHg 43%
    10:00 +18°C° 0 mm 2 mps 692 mmHg 38%
    11:00 +20°C° 0 mm 2 mps 692 mmHg 33%
    12:00 +20°C° 0 mm 2 mps 692 mmHg 30%
    13:00 +21°C° 0 mm 3 mps 691 mmHg 28%
    14:00 +22°C° 0 mm 3 mps 691 mmHg 25%
    15:00 +20°C° 0 mm 2 mps 690 mmHg 31%
    16:00 +18°C° 0 mm 2 mps 690 mmHg 37%
    17:00 +16°C° 0 mm 1 mps 690 mmHg 43%
    18:00 +15°C° 0 mm 1 mps 690 mmHg 46%
    19:00 +14°C° 0 mm 1 mps 690 mmHg 49%
    20:00 +14°C° 0 mm 1 mps 690 mmHg 52%
    21:00 +12°C° 0 mm 0 mps 690 mmHg 54%
    22:00 +11°C° 0 mm 0 mps 690 mmHg 56%
    23:00 +11°C° 0 mm 0 mps 689 mmHg 58%

    Day after tomorrow, 12 December, Thursday

    Time Temperature Precipitation Wind Pressure Humidity
    00:00 +10°C° 0 mm 0 mps 689 mmHg 59%
    01:00 +10°C° 0 mm 0 mps 689 mmHg 60%
    02:00 +10°C° 0 mm 0 mps 688 mmHg 61%
    03:00 +9°C° 0 mm 0 mps 688 mmHg 61%
    04:00 +9°C° 0 mm 0 mps 688 mmHg 61%
    05:00 +9°C° 0 mm 0 mps 687 mmHg 61%
    06:00 +11°C° 0 mm 1 mps 688 mmHg 57%
    07:00 +12°C° 0 mm 2 mps 689 mmHg 53%
    08:00 +13°C° 0 mm 3 mps 689 mmHg 49%
    09:00 +14°C° 0 mm 4 mps 689 mmHg 45%
    10:00 +15°C° 0 mm 5 mps 689 mmHg 41%
    11:00 +17°C° 0 mm 5 mps 690 mmHg 37%
    12:00 +17°C° 0 mm 6 mps 689 mmHg 37%
    13:00 +17°C° 0 mm 7 mps 689 mmHg 37%
    14:00 +17°C° 0 mm 8 mps 689 mmHg 36%
    15:00 +15°C° 0.1 mm 7 mps 689 mmHg 47%
    16:00 +13°C° 0.1 mm 5 mps 689 mmHg 57%
    17:00 +11°C° 0.1 mm 4 mps 688 mmHg 68%
    18:00 +10°C° 0 mm 3 mps 689 mmHg 69%
    19:00 +10°C° 0 mm 3 mps 689 mmHg 70%
    20:00 +9°C° 0 mm 3 mps 690 mmHg 71%
    21:00 +9°C° 0 mm 2 mps 689 mmHg 73%
    22:00 +8°C° 0 mm 2 mps 689 mmHg 74%
    23:00 +8°C° 0 mm 2 mps 689 mmHg 76%

    13 December, Friday

    Time Temperature Precipitation Wind Pressure Humidity
    00:00 +7°C° 0 mm 2 mps 689 mmHg 74%
    01:00 +7°C° 0 mm 2 mps 689 mmHg 73%
    02:00 +7°C° 0 mm 2 mps 689 mmHg 72%
    03:00 +7°C° 0 mm 2 mps 689 mmHg 72%
    04:00 +6°C° 0 mm 2 mps 689 mmHg 72%
    05:00 +5°C° 0 mm 3 mps 690 mmHg 73%
    06:00 +7°C° 0 mm 3 mps 690 mmHg 72%
    07:00 +8°C° 0 mm 3 mps 691 mmHg 70%
    08:00 +9°C° 0 mm 3 mps 691 mmHg 69%
    09:00 +11°C° 0 mm 3 mps 691 mmHg 63%
    10:00 +12°C° 0 mm 3 mps 692 mmHg 56%
    11:00 +14°C° 0 mm 4 mps 692 mmHg 49%
    12:00 +16°C° 0 mm 3 mps 691 mmHg 47%
    13:00 +16°C° 0 mm 3 mps 691 mmHg 45%
    14:00 +17°C° 0 mm 3 mps 691 mmHg 42%
    15:00 +14°C° 0 mm 3 mps 691 mmHg 46%
    16:00 +13°C° 0 mm 3 mps 691 mmHg 50%
    17:00 +13°C° 0 mm 2 mps 691 mmHg 54%
    18:00 +11°C° 0 mm 3 mps 691 mmHg 57%
    19:00 +10°C° 0 mm 3 mps 691 mmHg 60%
    20:00 +10°C° 0 mm 3 mps 691 mmHg 63%
    21:00 +9°C° 0 mm 3 mps 691 mmHg 65%
    22:00 +9°C° 0 mm 2 mps 692 mmHg 66%
    23:00 +9°C° 0 mm 2 mps 692 mmHg 68%

    14 December, Saturday

    Time Temperature Precipitation Wind Pressure Humidity
    00:00 +8°C° 0 mm 2 mps 691 mmHg 71%
    01:00 +8°C° 0 mm 2 mps 691 mmHg 74%
    02:00 +8°C° 0 mm 2 mps 691 mmHg 78%
    03:00 +7°C° 0 mm 2 mps 691 mmHg 79%
    04:00 +7°C° 0 mm 2 mps 691 mmHg 80%
    05:00 +7°C° 0 mm 2 mps 691 mmHg 81%
    06:00 +8°C° 0 mm 2 mps 691 mmHg 76%
    07:00 +9°C° 0 mm 2 mps 692 mmHg 71%
    08:00 +10°C° 0 mm 2 mps 693 mmHg 65%
    09:00 +12°C° 0 mm 2 mps 693 mmHg 58%
    10:00 +14°C° 0 mm 2 mps 693 mmHg 50%
    11:00 +15°C° 0 mm 2 mps 693 mmHg 42%
    12:00 +16°C° 0 mm 2 mps 692 mmHg 39%
    13:00 +16°C° 0 mm 2 mps 692 mmHg 35%
    14:00 +17°C° 0 mm 2 mps 692 mmHg 31%
    15:00 +16°C° 0 mm 2 mps 692 mmHg 37%
    16:00 +14°C° 0 mm 2 mps 692 mmHg 43%
    17:00 +13°C° 0 mm 2 mps 692 mmHg 48%
    18:00 +11°C° 0 mm 3 mps 692 mmHg 52%
    19:00 +11°C° 0 mm 3 mps 692 mmHg 56%
    20:00 +10°C° 0 mm 3 mps 692 mmHg 60%
    21:00 +9°C° 0 mm 3 mps 692 mmHg 61%
    22:00 +9°C° 0 mm 3 mps 692 mmHg 63%
    23:00 +8°C° 0 mm 2 mps 692 mmHg 64%

    15 December, Sunday

    Time Temperature Precipitation Wind Pressure Humidity
    00:00 +8°C° 0 mm 2 mps 692 mmHg 67%
    01:00 +8°C° 0 mm 2 mps 692 mmHg 70%
    02:00 +7°C° 0 mm 2 mps 692 mmHg 73%
    03:00 +8°C° 0 mm 1 mps 691 mmHg 74%
    04:00 +7°C° 0 mm 1 mps 691 mmHg 75%
    05:00 +7°C° 0 mm 1 mps 691 mmHg 75%
    06:00 +8°C° 0 mm 1 mps 691 mmHg 66%
    07:00 +9°C° 0 mm 2 mps 692 mmHg 56%
    08:00 +10°C° 0 mm 2 mps 692 mmHg 47%
    09:00 +11°C° 0 mm 3 mps 692 mmHg 39%
    10:00 +13°C° 0 mm 4 mps 692 mmHg 32%
    11:00 +15°C° 0 mm 4 mps 692 mmHg 25%
    12:00 +15°C° 0 mm 5 mps 692 mmHg 28%
    13:00 +15°C° 0 mm 6 mps 692 mmHg 30%
    14:00 +15°C° 0 mm 7 mps 691 mmHg 33%
    15:00 +14°C° 0 mm 7 mps 691 mmHg 39%
    16:00 +13°C° 0 mm 6 mps 691 mmHg 45%
    17:00 +10°C° 0 mm 5 mps 691 mmHg 51%
    18:00 +10°C° 0.1 mm 5 mps 691 mmHg 57%
    19:00 +10°C° 0.1 mm 4 mps 692 mmHg 64%
    20:00 +8°C° 0.1 mm 4 mps 692 mmHg 70%
    21:00 +9°C° 0.1 mm 3 mps 692 mmHg 74%
    22:00 +9°C° 0.1 mm 2 mps 692 mmHg 78%
    23:00 +9°C° 0.1 mm 1 mps 693 mmHg 81%
    Show more